"2010-01-02 00:00:00",1555484,3.405,66.18,6.723,1.257,2.903,99.68286,-1.508,-0.259,56.73,0,109.5,13.61,-0.76,28.2
"2010-01-02 00:00:30",1555485,4.594,77.38,4.987,0.508,4.869,99.67748,-1.522,-0.236,56.79,0,109.5,13.61,-0.78,39.4
"2010-01-02 00:01:00",1555486,4.094,75.98,6.077,1.056,4.056,99.66984,-1.541,-0.254,56.77,0,109.5,13.61,-0.79,38.0
"2010-01-02 00:01:30",1555487,2.874,64.34,6.712,1.093,1.586,99.66843,-1.545,-0.352,56.6,0,109.5,13.62,-0.80,26.3
"2010-01-02 00:02:00",1555488,2.739,56.63,11.85,1.253,1.267,99.6687,-1.544,-0.44,56.57,0,109.5,13.61,-0.80,18.6
"2010-01-02 00:02:30",1555489,2.644,64.51,9.44,1.224,2.108,99.66587,-1.551,-0.383,56.64,0,109.5,13.62,-0.80,26.5
"2010-01-02 00:03:00",1555490,2.497,67.78,9.86,1.219,2.584,99.66898,-1.543,-0.384,56.63,0,109.5,13.62,-0.80,29.8
"2010-01-02 00:03:30",1555491,3.093,67.29,8.92,1.172,3.932,99.66615,-1.551,-0.235,56.76,0,109.5,13.62,-0.80,29.3
"2010-01-02 00:04:00",1555492,3.485,80.5,6.172,1.176,3.636,99.66898,-1.543,-0.272,56.77,0,109.5,13.62,-0.80,42.5
"2010-01-02 00:04:30",1555493,3.356,81.5,7.552,1.197,2.888,99.67352,-1.532,-0.297,56.64,0,109.5,13.62,-0.79,43.5
"2010-01-02 00:05:00",1555494,3.336,84.6,7.097,1.206,1.906,99.67521,-1.527,-0.335,56.5,0,109.5,13.62,-0.78,46.6
"2010-01-02 00:05:30",1555495,3.152,85.6,5.694,1.066,1.799,99.67465,-1.529,-0.342,56.4,0,109.5,13.62,-0.78,47.6
"2010-01-02 00:06:00",1555496,3.586,87.8,6.776,1.264,2.986,99.67323,-1.533,-0.275,56.46,0,109.5,13.63,-0.79,49.8
"2010-01-02 00:06:30",1555497,3.799,91.3,5.774,1.073,4.058,99.67266,-1.534,-0.226,56.45,0,109.5,13.63,-0.79,53.3
"2010-01-02 00:07:00",1555498,3.449,91.8,7.934,1.051,3.481,99.67861,-1.519,-0.267,56.38,0,109.5,13.63,-0.77,53.8
"2010-01-02 00:07:30",1555499,2.013,89.7,4.22,0.864,1.049,99.68456,-1.504,-0.335,56.3,0,109.5,13.63,-0.76,51.7
"2010-01-02 00:08:00",1555500,2.098,78.96,4.342,1.162,1.344,99.68851,-1.494,-0.358,56.26,0,109.5,13.63,-0.75,41.0
"2010-01-02 00:08:30",1555501,1.829,75,3.501,0.976,0.679,99.69249,-1.483,-0.358,56.26,0,109.5,13.63,-0.74,37.0
"2010-01-02 00:09:00",1555502,3.215,85.5,4.937,1.018,3.817,99.69305,-1.482,-0.316,56.28,0,109.5,13.63,-0.74,47.5
"2010-01-02 00:09:30",1555503,2.881,68.63,7.212,1.147,3.424,99.6939,-1.48,-0.199,56.32,0,109.5,13.63,-0.73,30.6
"2010-01-02 00:10:00",1555504,3.037,66.35,7.53,1.245,3.073,99.69418,-1.479,-0.218,56.26,0,109.5,13.63,-0.73,28.3
"2010-01-02 00:10:30",1555505,2.627,64.69,7.291,1.154,1.938,99.69503,-1.477,-0.263,56.11,0,109.5,13.63,-0.73,26.7
"2010-01-02 00:11:00",1555506,2.784,53.05,8.83,0.93,-0.657,99.6939,-1.48,-0.439,55.85,0,109.5,13.63,-0.73,15.0
"2010-01-02 00:11:30",1555507,3.252,59.29,7.92,1.199,1.27,99.69305,-1.482,-0.298,55.85,0,109.5,13.63,-0.74,21.3
"2010-01-02 00:12:00",1555508,3.822,71.39,8.61,1.088,3.254,99.69305,-1.482,-0.246,55.83,0,109.5,13.63,-0.74,33.4
"2010-01-02 00:12:30",1555509,3.871,82.4,5.258,1.109,4.66,99.69474,-1.478,-0.216,55.89,0,109.5,13.63,-0.73,44.4
"2010-01-02 00:13:00",1555510,3.703,75.11,6.819,1.014,3.876,99.69389,-1.48,-0.22,55.86,0,109.5,13.62,-0.73,37.1
"2010-01-02 00:13:30",1555511,2.803,68.92,10.55,1.124,2.127,99.6936,-1.481,-0.3,55.79,0,109.5,13.62,-0.73,30.9
"2010-01-02 00:14:00",1555512,1.778,56.03,5.106,0.415,0.369,99.6953,-1.476,-0.327,55.73,0,109.5,13.65,-0.73,18.0
"2010-01-02 00:14:30",1555513,2.165,50.98,4.909,0.924,0.734,99.70095,-1.462,-0.367,55.68,0,109.5,13.63,-0.72,13.0
"2010-01-02 00:15:00",1555514,3.004,45.39,15.62,1.284,2.79,99.70264,-1.458,-0.333,55.56,0,109.5,13.63,-0.71,7.4
"2010-01-02 00:15:30",1555515,3.474,55.91,6.803,1.09,3.92,99.70773,-1.445,-0.189,55.65,0,109.5,13.63,-0.70,17.9
"2010-01-02 00:16:00",1555516,4.21,56.96,5.352,0.971,3.76,99.71252,-1.432,-0.186,55.57,0,109.5,13.63,-0.69,19.0
"2010-01-02 00:16:30",1555517,3.25,59.69,5.365,1.181,2.437,99.71394,-1.429,-0.232,55.53,0,109.5,13.63,-0.68,21.7
"2010-01-02 00:17:00",1555518,3.666,61.49,5.606,1.192,2.622,99.7131,-1.431,-0.277,55.4,0,109.5,13.63,-0.68,23.5
"2010-01-02 00:17:30",1555519,3.011,63.96,7.883,1.207,2.375,99.71563,-1.424,-0.314,55.29,0,109.5,13.63,-0.68,26.0
"2010-01-02 00:18:00",1555520,2.81,67.52,11.32,1.161,3.387,99.71365,-1.43,-0.201,55.4,0,109.5,13.63,-0.68,29.5
"2010-01-02 00:18:30",1555521,3.217,72.46,6.401,1.116,4.026,99.71479,-1.427,-0.289,55.37,0,109.5,13.64,-0.68,34.5
"2010-01-02 00:19:00",1555522,2.603,63.71,6.981,1.209,2.675,99.7111,-1.436,-0.221,55.33,0,109.5,13.64,-0.69,25.7
"2010-01-02 00:19:30",1555523,2.785,61.91,6.789,1.227,2.518,99.70854,-1.443,-0.179,55.26,0,109.5,13.64,-0.70,23.9
"2010-01-02 00:20:00",1555524,2.671,57,6.665,0.951,0.406,99.70628,-1.448,-0.314,55.07,0,109.5,13.64,-0.70,19.0
"2010-01-02 00:20:30",1555525,3.64,60.44,7.097,1.117,2.032,99.70203,-1.459,-0.226,55.18,0,109.4,13.64,-0.71,22.4
"2010-01-02 00:21:00",1555526,4.816,66.84,4.757,1.059,3.416,99.69948,-1.466,-0.241,55.19,0,109.5,13.64,-0.72,28.8
"2010-01-02 00:21:30",1555527,4.529,65.58,5.493,1.207,3.802,99.69834,-1.469,-0.18,55.37,0,109.5,13.64,-0.72,27.6
"2010-01-02 00:22:00",1555528,4.039,65.63,5.609,1.116,3.902,99.69437,-1.479,-0.179,55.33,0,109.5,13.64,-0.73,27.6
"2010-01-02 00:22:30",1555529,3.179,64.62,6.144,1.184,3.178,99.6938,-1.48,-0.195,55.27,0,109.5,13.64,-0.73,26.6
"2010-01-02 00:23:00",1555530,2.422,64.1,4.837,1.105,1.555,99.69465,-1.478,-0.423,55.14,0,109.4,13.64,-0.73,26.1
"2010-01-02 00:23:30",1555531,2.102,65.94,4.309,0.926,0.79,99.69436,-1.479,-0.398,55.3,0,109.5,13.64,-0.73,27.9
"2010-01-02 00:24:00",1555532,3.203,70.58,5.962,1.243,3.553,99.6938,-1.48,-0.231,55.53,0,109.5,13.64,-0.73,32.6
"2010-01-02 00:24:30",1555533,3.438,73,5.239,1.102,3.962,99.69408,-1.479,-0.228,55.57,0,109.5,13.64,-0.73,35.0
"2010-01-02 00:25:00",1555534,3.231,68.68,6.239,1.13,2.982,99.69408,-1.479,-0.246,55.44,0,109.5,13.64,-0.73,30.7
"2010-01-02 00:25:30",1555535,4.112,70.81,5.47,1.1,3.202,99.69408,-1.479,-0.26,55.26,0,109.5,13.64,-0.73,32.8
"2010-01-02 00:26:00",1555536,2.992,63.11,5.209,1.041,0.943,99.69408,-1.479,-0.269,55.19,0,109.5,13.64,-0.73,25.1
"2010-01-02 00:26:30",1555537,3.93,68.49,5.917,1.154,2.15,99.69408,-1.479,-0.328,55.15,0,109.5,13.64,-0.73,30.5
"2010-01-02 00:27:00",1555538,4.404,72.56,6.053,1.172,2.949,99.69408,-1.479,-0.256,55.34,0,109.5,13.64,-0.73,34.6
"2010-01-02 00:27:30",1555539,4.485,73.52,6.152,1.155,3.341,99.69408,-1.479,-0.166,55.65,0,109.5,13.64,-0.73,35.5
"2010-01-02 00:28:00",1555540,4.787,75.16,5.858,1.063,3.501,99.69408,-1.479,-0.261,55.69,0,109.5,13.64,-0.73,37.2
"2010-01-02 00:28:30",1555541,4.27,72.07,5.863,1.188,2.291,99.69408,-1.479,-0.236,55.81,0,109.5,13.64,-0.73,34.1
"2010-01-02 00:29:00",1555542,4.839,74.88,4.83,0.977,3.406,99.69408,-1.479,-0.328,55.68,0,109.5,13.64,-0.73,36.9
"2010-01-02 00:29:30",1555543,2.739,70.95,4.664,0.967,1.277,99.69408,-1.479,-0.336,55.41,0,109.5,13.63,-0.73,32.9
"2010-01-02 00:30:00",1555544,4.146,77.22,5.599,1.113,4.392,99.69267,-1.483,-0.218,55.23,0,109.4,13.63,-0.74,39.2
"2010-01-02 00:30:30",1555545,3.713,71.74,6.456,1.181,3.127,99.68813,-1.495,-0.357,55.13,0,109.5,13.64,-0.75,33.7
"2010-01-02 00:31:00",1555546,3.892,71.72,5.721,1.193,3.483,99.68502,-1.502,-0.261,55.44,0,109.4,13.64,-0.76,33.7
"2010-01-02 00:31:30",1555547,3.975,71.34,6.425,1.115,3.368,99.68162,-1.511,-0.287,55.5,0,109.5,13.64,-0.76,33.3
"2010-01-02 00:32:00",1555548,3.358,67.29,5.81,1.219,2.921,99.6802,-1.515,-0.335,55.5,0,109.4,13.64,-0.77,29.3
"2010-01-02 00:32:30",1555549,3.071,61.16,6.925,1.222,1.963,99.67765,-1.521,-0.408,55.44,0,109.4,13.64,-0.77,23.2
"2010-01-02 00:33:00",1555550,4.406,65.09,5.674,1.118,3.522,99.67171,-1.536,-0.29,55.47,0,109.4,13.64,-0.79,27.1
"2010-01-02 00:33:30",1555551,4.959,65.57,5.738,1.17,2.889,99.67001,-1.541,-0.297,55.58,0,109.4,13.64,-0.79,27.6
"2010-01-02 00:34:00",1555552,4.708,63.88,6.123,1.167,2.273,99.67029,-1.54,-0.277,55.86,0,109.4,13.64,-0.79,25.9
"2010-01-02 00:34:30",1555553,5.031,62.45,5.707,1.111,2.895,99.66887,-1.544,-0.243,56.06,0,109.4,13.64,-0.80,24.5
"2010-01-02 00:35:00",1555554,4.472,58.44,7.197,1.321,3.106,99.66576,-1.552,-0.226,56.1,0,109.4,13.64,-0.81,20.4
"2010-01-02 00:35:30",1555555,3.87,58.18,5.992,1.194,4.244,99.66405,-1.556,-0.231,55.75,0,109.4,13.64,-0.81,20.2
"2010-01-02 00:36:00",1555556,4.268,59.44,5.876,1.028,4.458,99.66179,-1.562,-0.344,55.4,0,109.4,13.64,-0.82,21.4
"2010-01-02 00:36:30",1555557,2.266,53.91,1.396,0.455,0.792,99.66434,-1.555,-0.444,55.22,0,109.4,13.64,-0.81,15.9
"2010-01-02 00:37:00",1555558,2.977,60.78,5.262,1.135,2.177,99.66576,-1.552,-0.355,55.29,0,109.4,13.65,-0.81,22.8
"2010-01-02 00:37:30",1555559,3.444,57.16,6.193,1.095,3.879,99.66916,-1.543,-0.252,55.33,0,109.4,13.65,-0.80,19.2
"2010-01-02 00:38:00",1555560,2.781,44.53,6.663,1.172,2.617,99.67199,-1.536,-0.193,55.3,0,109.4,13.65,-0.79,6.5
"2010-01-02 00:38:30",1555561,4.063,51.85,5.739,1.094,2.542,99.67567,-1.526,-0.377,55.11,0,109.4,13.65,-0.78,13.8
"2010-01-02 00:39:00",1555562,4.525,57.21,6.241,0.996,2.805,99.6751,-1.528,-0.301,55.38,0,109.4,13.65,-0.78,19.2
"2010-01-02 00:39:30",1555563,3.115,57.17,6.947,0.862,0.095,99.67539,-1.527,-0.392,55.53,0,109.4,13.65,-0.78,19.2
"2010-01-02 00:40:00",1555564,4.618,73.47,6.233,1.066,2.539,99.67312,-1.533,-0.309,55.54,0,109.4,13.65,-0.79,35.5
"2010-01-02 00:40:30",1555565,4.573,75.55,5.798,1.046,2.814,99.66859,-1.544,-0.249,55.49,0,109.4,13.65,-0.80,37.6
"2010-01-02 00:41:00",1555566,4.306,73.99,6.41,1.14,2.876,99.66633,-1.55,-0.265,55.44,0,109.4,13.65,-0.80,36.0
"2010-01-02 00:41:30",1555567,4.064,72.5,5.401,1.09,3.288,99.66264,-1.56,-0.239,55.52,0,109.4,13.65,-0.81,34.5
"2010-01-02 00:42:00",1555568,3.803,67.57,5.946,1.072,3.062,99.66009,-1.566,-0.342,55.57,0,109.4,13.65,-0.82,29.6
"2010-01-02 00:42:30",1555569,1.952,52.63,3.154,0.599,0.407,99.66009,-1.566,-0.414,55.55,0,109.4,13.65,-0.82,14.6
"2010-01-02 00:43:00",1555570,3.512,52.97,5.779,1.04,3.845,99.66009,-1.566,-0.304,55.49,0,109.4,13.65,-0.82,15.0
"2010-01-02 00:43:30",1555571,3.258,46.31,6.217,1.168,3.195,99.66093,-1.564,-0.247,55.19,0,109.4,13.65,-0.82,8.3
"2010-01-02 00:44:00",1555572,3.702,47.92,6.045,1.105,3.071,99.66009,-1.566,-0.321,54.89,0,109.4,13.65,-0.82,9.9
"2010-01-02 00:44:30",1555573,4.154,51.1,6.303,1.122,2.962,99.66009,-1.566,-0.327,55.07,0,109.5,13.65,-0.82,13.1
"2010-01-02 00:45:00",1555574,3.861,53.41,6.09,1.203,2.437,99.66038,-1.565,-0.246,55.48,0,109.4,13.65,-0.82,15.4
"2010-01-02 00:45:30",1555575,3.615,56.62,5.341,1.215,1.14,99.66038,-1.565,-0.42,55.57,0,109.4,13.65,-0.82,18.6
"2010-01-02 00:46:00",1555576,4.334,64.38,6.053,1.116,2.651,99.65981,-1.567,-0.258,55.8,0,109.4,13.64,-0.82,26.4
"2010-01-02 00:46:30",1555577,4.162,68.16,5.92,1.164,2.466,99.65131,-1.588,-0.316,55.76,0,109.4,13.65,-0.84,30.2
"2010-01-02 00:47:00",1555578,4.579,77.33,4.726,1.065,2.786,99.64479,-1.605,-0.328,55.7,0,109.4,13.65,-0.86,39.3
"2010-01-02 00:47:30",1555579,4.784,80.9,5.76,1.126,2.915,99.64082,-1.615,-0.272,55.68,0,109.4,13.65,-0.87,42.9
"2010-01-02 00:48:00",1555580,4.673,78.32,6.431,1.112,1.693,99.6329,-1.635,-0.403,55.51,0,109.4,13.64,-0.89,40.3
"2010-01-02 00:48:30",1555581,4.644,76.74,5.87,1.191,2.265,99.63005,-1.643,-0.389,55.38,0,109.4,13.65,-0.90,38.7
"2010-01-02 00:49:00",1555582,4.643,75.87,5.988,1.151,1.692,99.63005,-1.643,-0.348,55.43,0,109.4,13.65,-0.90,37.9
"2010-01-02 00:49:30",1555583,5.48,78.92,4.629,0.766,3.52,99.62892,-1.645,-0.37,55.4,0,109.4,13.65,-0.90,40.9
"2010-01-02 00:50:00",1555584,5.939,82.5,3.977,0.531,4.135,99.62976,-1.643,-0.304,55.46,0,109.4,13.66,-0.90,44.5
"2010-01-02 00:50:30",1555585,5.014,80.6,6.327,1.146,2.503,99.61275,-1.687,-0.371,55.45,0,109.4,13.66,-0.94,42.6
"2010-01-02 00:51:00",1555586,4.972,77.05,6.351,1.121,2.729,99.59916,-1.721,-0.472,55.53,0,109.4,13.66,-0.98,39.1
"2010-01-02 00:51:30",1555587,4.775,73.31,6.223,1.109,2.637,99.60058,-1.718,-0.441,55.65,0,109.4,13.66,-0.97,35.3
"2010-01-02 00:52:00",1555588,4.704,71.7,5.496,1,3.04,99.6017,-1.715,-0.417,55.8,0,109.4,13.66,-0.97,33.7
"2010-01-02 00:52:30",1555589,3.819,67.32,5.595,1.117,2.093,99.60509,-1.706,-0.392,55.96,0,109.5,13.66,-0.96,29.3
"2010-01-02 00:53:00",1555590,3.88,68.33,5.821,1.129,2.878,99.59914,-1.721,-0.457,56.1,0,109.4,13.66,-0.98,30.3
"2010-01-02 00:53:30",1555591,3.499,64.43,6.108,1.171,2.911,99.58555,-1.756,-0.415,56.23,0,109.4,13.66,-1.01,26.4
"2010-01-02 00:54:00",1555592,2.486,60.99,4.526,0.921,0.864,99.57959,-1.771,-0.554,56.15,0,109.4,13.66,-1.03,23.0
"2010-01-02 00:54:30",1555593,3.305,71.99,7.696,1.205,1.779,99.57166,-1.791,-0.501,56.19,0,109.4,13.66,-1.05,34.0
"2010-01-02 00:55:00",1555594,4.095,83.8,6.307,1.056,2.968,99.57476,-1.783,-0.508,56.18,0,109.4,13.66,-1.04,45.8
"2010-01-02 00:55:30",1555595,3.384,83.7,4.841,1.082,1.011,99.57194,-1.791,-0.57,56.11,0,109.4,13.66,-1.04,45.7
"2010-01-02 00:56:00",1555596,4.134,76.3,6.647,1.037,2.947,99.57617,-1.78,-0.462,56.19,0,109.4,13.66,-1.03,38.3
"2010-01-02 00:56:30",1555597,3.712,60.18,6.615,1.197,1.595,99.57392,-1.786,-0.52,56.1,0,109.4,13.66,-1.04,22.2
"2010-01-02 00:57:00",1555598,4.252,57.51,5.777,0.985,2.108,99.56314,-1.813,-0.591,56.2,0,109.4,13.66,-1.07,19.5
"2010-01-02 00:57:30",1555599,3.054,51.77,5.513,0.981,0.055,99.54501,-1.859,-0.578,56.42,0,109.4,13.66,-1.11,13.8
"2010-01-02 00:58:00",1555600,3.73,58.69,5.676,1.219,1.413,99.54415,-1.861,-0.494,56.59,0,109.4,13.66,-1.12,20.7
"2010-01-02 00:58:30",1555601,4.458,76.26,6.815,0.91,3.828,99.54585,-1.857,-0.495,56.49,0,109.4,13.66,-1.11,38.3
"2010-01-02 00:59:00",1555602,4.009,81.4,5.392,1.131,3.538,99.54668,-1.855,-0.506,56.47,0,109.4,13.66,-1.11,43.4
"2010-01-02 00:59:30",1555603,4.093,80.2,5.664,1.01,3.533,99.54158,-1.868,-0.624,56.48,0,109.4,13.66,-1.12,42.2
"2010-01-02 01:00:00",1555604,3.304,77.6,5.599,1.124,1.3,99.52824,-1.902,-0.776,56.37,0,109.4,13.66,-1.16,39.6
"2010-01-02 01:00:30",1555605,3.03,77.42,6.029,1.029,1.422,99.51692,-1.931,-0.65,56.58,0,109.4,13.65,-1.19,39.4
"2010-01-02 01:01:00",1555606,3.147,77.67,6.369,1.161,1.877,99.51635,-1.932,-0.75,56.52,0,109.4,13.66,-1.19,39.7
"2010-01-02 01:01:30",1555607,2.51,70.72,5.259,1.151,1.465,99.51861,-1.927,-0.694,56.64,0,109.4,13.66,-1.18,32.7
"2010-01-02 01:02:00",1555608,3.161,68.88,5.853,1.031,3.092,99.51608,-1.933,-0.631,56.75,0,109.4,13.65,-1.19,30.9
"2010-01-02 01:02:30",1555609,3.233,62.66,6.354,1.065,2.697,99.51775,-1.929,-0.708,56.7,0,109.4,13.66,-1.18,24.7
"2010-01-02 01:03:00",1555610,2.546,57.95,8.04,1.172,0.629,99.507,-1.956,-0.866,56.61,0,109.4,13.65,-1.21,20.0
"2010-01-02 01:03:30",1555611,2.295,61.86,6.55,0.957,0.299,99.4948,-1.987,-0.774,56.8,0,109.4,13.66,-1.24,23.9
"2010-01-02 01:04:00",1555612,3.462,71.49,5.701,1.083,1.734,99.48856,-2.003,-0.772,56.83,0,109.4,13.66,-1.26,33.5
"2010-01-02 01:04:30",1555613,4.159,71.73,5.139,1.297,2.747,99.48489,-2.013,-0.604,57.02,0,109.4,13.66,-1.27,33.7
"2010-01-02 01:05:00",1555614,4.975,72.04,4.842,1.003,3.462,99.48546,-2.011,-0.664,56.89,0,109.4,13.66,-1.27,34.0
"2010-01-02 01:05:30",1555615,5.023,71.68,5.37,1.05,3.368,99.48376,-2.015,-0.712,56.74,0,109.4,13.67,-1.27,33.7
"2010-01-02 01:06:00",1555616,4.767,72.02,5.22,1.115,3.091,99.48573,-2.01,-0.738,56.76,0,109.4,13.67,-1.27,34.0
"2010-01-02 01:06:30",1555617,3.84,68.93,6.168,1.127,1.357,99.48433,-2.014,-0.836,56.79,0,109.4,13.67,-1.27,30.9
"2010-01-02 01:07:00",1555618,3.902,69.66,5.403,1.093,1.168,99.48461,-2.013,-0.763,56.91,0,109.4,13.67,-1.27,31.7
"2010-01-02 01:07:30",1555619,5.272,78.09,4.874,0.957,3.255,99.48149,-2.021,-0.802,56.85,0,109.4,13.67,-1.28,40.1
"2010-01-02 01:08:00",1555620,5.518,79.11,5.123,0.832,3.84,99.47498,-2.038,-0.714,56.87,0,109.4,13.67,-1.29,41.1
"2010-01-02 01:08:30",1555621,5.073,73.36,6.384,1.14,3.117,99.46704,-2.058,-0.726,56.85,0,109.4,13.67,-1.31,35.4
"2010-01-02 01:09:00",1555622,5.361,71.52,4.908,0.917,3.286,99.45883,-2.079,-0.726,56.92,0,109.4,13.67,-1.33,33.5
"2010-01-02 01:09:30",1555623,4.789,67,5.606,1.196,2.208,99.45287,-2.094,-0.789,57.02,0,109.4,13.67,-1.35,29.0
"2010-01-02 01:10:00",1555624,4.269,66.45,5.174,1.155,1.206,99.45315,-2.093,-0.83,57.14,0,109.4,13.67,-1.35,28.4
"2010-01-02 01:10:30",1555625,4.673,77.17,7.305,1.118,1.82,99.45399,-2.091,-0.911,57.09,0,109.4,13.67,-1.35,39.2
"2010-01-02 01:11:00",1555626,4.501,86.4,6.605,1.125,2.903,99.45174,-2.097,-0.761,57.07,0,109.4,13.67,-1.35,48.4
"2010-01-02 01:11:30",1555627,4.113,86.6,5.451,1.171,3.544,99.45344,-2.093,-0.801,56.98,0,109.4,13.67,-1.35,48.6
"2010-01-02 01:12:00",1555628,3.992,87.6,5.442,1.117,3.546,99.45202,-2.096,-0.794,57.06,0,109.4,13.67,-1.35,49.6
"2010-01-02 01:12:30",1555629,3.285,87,6.165,1.168,2,99.44465,-2.115,-0.862,57.06,0,109.4,13.67,-1.37,49.0
"2010-01-02 01:13:00",1555630,3.042,87.4,4.699,1.018,0.601,99.43162,-2.148,-1.024,56.94,0,109.4,13.67,-1.40,49.4
"2010-01-02 01:13:30",1555631,3.73,94.2,6.368,1.169,1.975,99.42255,-2.171,-0.922,57.03,0,109.4,13.67,-1.43,56.2
"2010-01-02 01:14:00",1555632,4.588,99.1,5.804,0.986,3.129,99.42028,-2.177,-0.83,57.13,0,109.4,13.67,-1.43,61.1
"2010-01-02 01:14:30",1555633,4.556,96.1,5.781,1.046,3.443,99.4214,-2.174,-0.874,57.09,0,109.4,13.67,-1.43,58.1
"2010-01-02 01:15:00",1555634,4.322,89.1,5.264,1.076,3.108,99.42027,-2.177,-0.835,57.07,0,109.4,13.67,-1.43,51.1
"2010-01-02 01:15:30",1555635,3.856,84.4,6.974,1.085,2.104,99.42112,-2.175,-0.96,57.01,0,109.4,13.67,-1.43,46.4
"2010-01-02 01:16:00",1555636,2.29,73.3,4.081,0.584,-0.674,99.42112,-2.175,-0.96,57.13,0,109.4,13.67,-1.43,35.3
"2010-01-02 01:16:30",1555637,3.199,61.88,11.79,1.212,-0.133,99.42197,-2.173,-1.11,57.17,0,109.4,13.67,-1.43,23.9
"2010-01-02 01:17:00",1555638,3.799,71.44,7.492,1.024,2.413,99.42197,-2.173,-0.94,57.65,0,109.5,13.67,-1.43,33.4
"2010-01-02 01:17:30",1555639,3.179,62.32,6.479,1.239,2.044,99.42197,-2.173,-0.865,58.02,0,109.4,13.67,-1.43,24.3
"2010-01-02 01:18:00",1555640,3.571,56.09,7.291,1.111,1.755,99.42083,-2.176,-0.878,58.36,0,109.4,13.67,-1.43,18.1
"2010-01-02 01:18:30",1555641,2.239,49.56,6.707,0.932,-0.33,99.40921,-2.205,-0.979,58.58,0,109.3,13.67,-1.46,11.6
"2010-01-02 01:19:00",1555642,2.942,59.63,6.871,1.151,1.449,99.40212,-2.223,-1.002,58.66,0,109.4,13.67,-1.48,21.6
"2010-01-02 01:19:30",1555643,1.571,52.33,5.917,1.075,-1.173,99.39476,-2.242,-1.087,58.7,0,109.4,13.67,-1.50,14.3
"2010-01-02 01:20:00",1555644,2.657,72.25,9.84,1.079,2.293,99.38853,-2.258,-0.955,58.94,0,109.4,13.67,-1.51,34.2
"2010-01-02 01:20:30",1555645,2.766,69.74,11.71,1.13,1.984,99.38795,-2.26,-0.992,58.96,0,109.4,13.67,-1.52,31.7
"2010-01-02 01:21:00",1555646,2.206,83.9,10.2,1.203,0.953,99.38795,-2.26,-1.065,58.96,0,109.4,13.67,-1.52,45.9
"2010-01-02 01:21:30",1555647,2.261,87.3,11.55,1.189,0.549,99.38795,-2.26,-1.027,58.92,0,109.4,13.67,-1.52,49.3
"2010-01-02 01:22:00",1555648,2.433,100.8,4.99,1.042,0.307,99.38003,-2.28,-1.122,58.58,0,109.4,13.67,-1.54,62.8
"2010-01-02 01:22:30",1555649,2.86,92,8.7,1.121,0.333,99.3616,-2.327,-1.22,58.24,0,109.4,13.68,-1.58,54.0
"2010-01-02 01:23:00",1555650,3.22,85.3,6.369,1.216,1.789,99.35396,-2.346,-0.942,58.5,0,109.4,13.68,-1.60,47.3
"2010-01-02 01:23:30",1555651,3.672,73.7,5.242,1.061,2.333,99.35396,-2.346,-0.994,58.53,0,109.4,13.68,-1.60,35.7
"2010-01-02 01:24:00",1555652,3.553,62.23,7.273,1.146,1.779,99.35396,-2.346,-1.044,58.69,0,109.4,13.68,-1.60,24.2
"2010-01-02 01:24:30",1555653,2.583,55.18,5.523,1.009,-0.253,99.35396,-2.346,-1.16,58.71,0,109.4,13.68,-1.60,17.2
"2010-01-02 01:25:00",1555654,3.362,53.35,7.012,1.171,0.544,99.35396,-2.346,-1.198,58.97,0,109.4,13.68,-1.60,15.3
"2010-01-02 01:25:30",1555655,2.82,38.59,5.205,0.829,-1.376,99.33979,-2.382,-1.195,59.71,0,109.4,13.68,-1.64,0.6
"2010-01-02 01:26:00",1555656,4.929,46.08,3.882,1.005,2.61,99.32137,-2.429,-0.983,61.03,0,109.4,13.68,-1.69,8.1
"2010-01-02 01:26:30",1555657,4.882,44.89,4.552,1.009,2.855,99.31995,-2.433,-0.979,61.91,0,109.4,13.68,-1.69,6.9
"2010-01-02 01:27:00",1555658,5.411,47.36,3.849,0.569,3.127,99.31939,-2.434,-1.037,62.32,0,109.4,13.68,-1.69,9.4
"2010-01-02 01:27:30",1555659,4.983,46.19,5.67,1.014,2.07,99.29729,-2.491,-1.119,62.19,0,109.4,13.68,-1.75,8.2
"2010-01-02 01:28:00",1555660,3.874,40.99,5.312,1.005,-0.762,99.28596,-2.519,-1.247,62.12,0,109.4,13.68,-1.78,3.0
"2010-01-02 01:28:30",1555661,4.63,47.72,6.273,1.16,1.496,99.28596,-2.519,-1.187,62.17,0,109.4,13.68,-1.78,9.7
"2010-01-02 01:29:00",1555662,5.345,53.18,5.253,0.823,2.996,99.27943,-2.536,-1.183,62.13,0,109.4,13.68,-1.79,15.2
"2010-01-02 01:29:30",1555663,5.484,58.01,3.716,0.524,3.788,99.26186,-2.581,-1.14,62,0,109.4,13.68,-1.84,20.0
"2010-01-02 01:30:00",1555664,5.447,57.83,4.523,0.661,3.621,99.25195,-2.606,-1.176,61.74,0,109.4,13.68,-1.86,19.8
"2010-01-02 01:30:30",1555665,4.692,53.8,6.049,1.15,1.62,99.25195,-2.606,-1.3,61.46,0,109.4,13.68,-1.86,15.8
"2010-01-02 01:31:00",1555666,3.977,51.13,4.856,0.947,0.174,99.25195,-2.606,-1.402,61.22,0,109.4,13.68,-1.86,13.1
"2010-01-02 01:31:30",1555667,4.561,55.23,6.241,1.201,1.454,99.25195,-2.606,-1.29,61.13,0,109.4,13.68,-1.86,17.2
"2010-01-02 01:32:00",1555668,5.599,62.74,3.963,0.845,3.354,99.24798,-2.616,-1.295,61.03,0,109.4,13.68,-1.87,24.7
"2010-01-02 01:32:30",1555669,5.611,63.62,3.842,0.722,3.786,99.2392,-2.639,-1.242,60.94,0,109.4,13.68,-1.90,25.6
"2010-01-02 01:33:00",1555670,5.438,64.5,3.815,0.562,3.792,99.23382,-2.652,-1.251,60.83,0,109.4,13.68,-1.91,26.5
"2010-01-02 01:33:30",1555671,4.868,62.25,5.578,1.059,2.558,99.23325,-2.654,-1.321,60.7,0,109.3,13.67,-1.91,24.2
"2010-01-02 01:34:00",1555672,3.181,53.48,1.344,0.484,-0.962,99.23183,-2.657,-1.498,60.65,0,109.4,13.67,-1.91,15.5
"2010-01-02 01:34:30",1555673,4.717,60.3,5.737,1.103,1.943,99.22957,-2.663,-1.46,60.82,0,109.4,13.67,-1.92,22.3
"2010-01-02 01:35:00",1555674,4.755,60.63,5.267,1.061,3.07,99.22872,-2.665,-1.325,61.02,0,109.4,13.67,-1.92,22.6
"2010-01-02 01:35:30",1555675,5.252,61.91,4,0.56,4.158,99.22872,-2.665,-1.286,61.01,0,109.4,13.67,-1.92,23.9
"2010-01-02 01:36:00",1555676,5.241,60.89,3.928,0.548,4.078,99.2324,-2.656,-1.277,60.92,0,109.4,13.67,-1.91,22.9
"2010-01-02 01:36:30",1555677,4.299,54.99,6.001,1.205,1.587,99.2375,-2.643,-1.426,60.78,0,109.4,13.67,-1.90,17.0
"2010-01-02 01:37:00",1555678,4.124,53.59,6.294,1.184,0.787,99.2443,-2.626,-1.418,60.89,0,109.4,13.67,-1.88,15.6
"2010-01-02 01:37:30",1555679,3.359,51.7,5.229,0.998,0.196,99.24997,-2.611,-1.447,60.94,0,109.4,13.67,-1.87,13.7
"2010-01-02 01:38:00",1555680,4.317,59.33,5.562,1.023,2.885,99.25167,-2.607,-1.361,60.98,0,109.4,13.68,-1.86,21.3
"2010-01-02 01:38:30",1555681,4.213,61.79,4.677,0.977,3.611,99.25167,-2.607,-1.31,60.94,0,109.4,13.68,-1.86,23.8
"2010-01-02 01:39:00",1555682,4.212,59.8,5.128,0.914,3.289,99.25195,-2.606,-1.359,60.88,0,109.4,13.68,-1.86,21.8
"2010-01-02 01:39:30",1555683,3.893,53.51,6.07,1.165,1.872,99.25195,-2.606,-1.419,60.81,0,109.4,13.68,-1.86,15.5
"2010-01-02 01:40:00",1555684,3.734,46.86,6.394,1.203,0.914,99.25195,-2.606,-1.446,60.92,0,109.4,13.68,-1.86,8.9
"2010-01-02 01:40:30",1555685,3.502,42.06,5.047,1.146,0.913,99.25195,-2.606,-1.399,61.14,0,109.4,13.68,-1.86,4.1
"2010-01-02 01:41:00",1555686,4.032,41.57,5.338,1.017,2.685,99.25195,-2.606,-1.331,61.53,0,109.4,13.68,-1.86,3.6
"2010-01-02 01:41:30",1555687,4.086,40.24,3.977,0.729,3.659,99.25195,-2.606,-1.262,61.97,0,109.4,13.68,-1.86,2.2
"2010-01-02 01:42:00",1555688,3.864,40.66,5.661,1.069,2.437,99.25195,-2.606,-1.336,62.23,0,109.4,13.68,-1.86,2.7
"2010-01-02 01:42:30",1555689,3.009,36.02,5.406,1.004,-0.311,99.25195,-2.606,-1.416,62.35,0,109.4,13.68,-1.86,358.0
"2010-01-02 01:43:00",1555690,2.899,35.63,2.483,0.455,-1.343,99.25195,-2.606,-1.436,62.38,0,109.4,13.68,-1.86,357.6
"2010-01-02 01:43:30",1555691,4.652,46.54,5.904,1.03,2.246,99.25195,-2.606,-1.352,62.34,0,109.4,13.69,-1.86,8.5
"2010-01-02 01:44:00",1555692,4.714,53.12,6.338,0.988,2.999,99.25195,-2.606,-1.283,62.15,0,109.4,13.69,-1.86,15.1
"2010-01-02 01:44:30",1555693,4.97,58.14,4.229,0.695,3.697,99.25195,-2.606,-1.304,61.63,0,109.4,13.69,-1.86,20.1
"2010-01-02 01:45:00",1555694,3.799,58.64,5.983,1.188,2.228,99.25195,-2.606,-1.314,60.96,0,109.4,13.68,-1.86,20.6
"2010-01-02 01:45:30",1555695,3.743,59.71,6.499,1.117,1.038,99.25195,-2.606,-1.526,59.84,0,109.4,13.68,-1.86,21.7